Location: Newark
(42.8481°N, 0.4872°E)
Time: 17:09:09
(UTC+00:00)

Vanguard 3 - Pass Details

Date: 02 November 2020
Orbit: 508 x 3262 km, 33.3° (Epoch: 28 November)

Event Time Altitude Azimuth Distance (km) Brightness Sun altitude
Rises 11:51:26 0° 278° (W) 7,212 11.9 32.1°
Reaches altitude 10° 11:59:38 10° 261° (W) 5,968 11.8 32.0°
Maximum altitude 12:08:01 15° 233° (SW) 5,076 12.0 31.9°
Drops below altitude 10° 12:15:12 10° 203° (SSW) 4,949 12.6 31.7°
Sets 12:20:54 0° 182° (S) 5,395 12.5 31.5°
